owner,sensor,date,latitude,longitude,relative_humidity,qcFlag 
COMPS,ioos:station:USF.COMPS:C10:1,2019-07-01T00:35:00,27.1690,-82.9260,74.41,11111222 
COMPS,ioos:station:USF.COMPS:C10:1,2019-07-01T01:35:00,27.1690,-82.9260,75.62,11111222 
COMPS,ioos:station:USF.COMPS:C10:1,2019-07-01T02:35:00,27.1690,-82.9260,74.2,11111222 
COMPS,ioos:station:USF.COMPS:C10:1,2019-07-01T03:35:00,27.1690,-82.9260,77.63,11111222 
COMPS,ioos:station:USF.COMPS:C10:1,2019-07-01T04:35:00,27.1690,-82.9260,79.02,11111222 
COMPS,ioos:station:USF.COMPS:C10:1,2019-07-01T05:35:00,27.1690,-82.9260,78.51,11111222 
COMPS,ioos:station:USF.COMPS:C10:1,2019-07-01T06:35:00,27.1690,-82.9260,77.88,11111222 
COMPS,ioos:station:USF.COMPS:C10:1,2019-07-01T07:35:00,27.1690,-82.9260,79.13,11111222 
COMPS,ioos:station:USF.COMPS:C10:1,2019-07-01T08:35:00,27.1690,-82.9260,77.27,11111222 
COMPS,ioos:station:USF.COMPS:C10:1,2019-07-01T09:35:00,27.1690,-82.9260,77.46,11111222 
COMPS,ioos:station:USF.COMPS:C10:1,2019-07-01T10:35:00,27.1690,-82.9260,76.16,11111222 
COMPS,ioos:station:USF.COMPS:C10:1,2019-07-01T11:35:00,27.1690,-82.9260,78.91,11111222 
COMPS,ioos:station:USF.COMPS:C10:1,2019-07-01T12:35:00,27.1690,-82.9260,77.37,11111222 
COMPS,ioos:station:USF.COMPS:C10:1,2019-07-01T13:35:00,27.1690,-82.9260,76.52,11111222 
COMPS,ioos:station:USF.COMPS:C10:1,2019-07-01T15:35:00,27.1690,-82.9260,74.65,11111222 
COMPS,ioos:station:USF.COMPS:C10:1,2019-07-01T16:35:00,27.1690,-82.9260,74.56,11111222 
COMPS,ioos:station:USF.COMPS:C10:1,2019-07-01T17:35:00,27.1690,-82.9260,74.05,11111222 
COMPS,ioos:station:USF.COMPS:C10:1,2019-07-01T18:35:00,27.1690,-82.9260,73.09,11111222 
COMPS,ioos:station:USF.COMPS:C10:1,2019-07-01T19:35:00,27.1690,-82.9260,73.04,11111222 
COMPS,ioos:station:USF.COMPS:C10:1,2019-07-01T20:35:00,27.1690,-82.9260,76.35,11111222 
COMPS,ioos:station:USF.COMPS:C10:1,2019-07-01T21:35:00,27.1690,-82.9260,75.69,11111222 
COMPS,ioos:station:USF.COMPS:C10:1,2019-07-01T22:35:00,27.1690,-82.9260,75.05,11111222 
COMPS,ioos:station:USF.COMPS:C10:1,2019-07-01T23:35:00,27.1690,-82.9260,74.01,11111222 
COMPS,ioos:station:USF.COMPS:C10:1,2019-07-02T00:35:00,27.1690,-82.9260,76.65,11111222 
COMPS,ioos:station:USF.COMPS:C10:1,2019-07-02T01:35:00,27.1690,-82.9260,77.62,11111222 
COMPS,ioos:station:USF.COMPS:C10:1,2019-07-02T02:35:00,27.1690,-82.9260,77.31,11111222 
COMPS,ioos:station:USF.COMPS:C10:1,2019-07-02T03:35:00,27.1690,-82.9260,78.15,11111222 
COMPS,ioos:station:USF.COMPS:C10:1,2019-07-02T04:35:00,27.1690,-82.9260,78.32,11111222 
COMPS,ioos:station:USF.COMPS:C10:1,2019-07-02T05:35:00,27.1690,-82.9260,76.01,11111222 
COMPS,ioos:station:USF.COMPS:C10:1,2019-07-02T06:35:00,27.1690,-82.9260,80.06,11111222 
COMPS,ioos:station:USF.COMPS:C10:1,2019-07-02T07:35:00,27.1690,-82.9260,80.04,11111222 
COMPS,ioos:station:USF.COMPS:C10:1,2019-07-02T08:35:00,27.1690,-82.9260,79.03,11111222 
COMPS,ioos:station:USF.COMPS:C10:1,2019-07-02T09:35:00,27.1690,-82.9260,78.32,11111222 
COMPS,ioos:station:USF.COMPS:C10:1,2019-07-02T10:35:00,27.1690,-82.9260,80.33,11111222 
COMPS,ioos:station:USF.COMPS:C10:1,2019-07-02T11:35:00,27.1690,-82.9260,78.42,11111222 
COMPS,ioos:station:USF.COMPS:C10:1,2019-07-02T12:35:00,27.1690,-82.9260,77.59,11111222 
COMPS,ioos:station:USF.COMPS:C10:1,2019-07-02T13:35:00,27.1690,-82.9260,76.13,11111222 
COMPS,ioos:station:USF.COMPS:C10:1,2019-07-02T14:35:00,27.1690,-82.9260,76.56,11111222 
COMPS,ioos:station:USF.COMPS:C10:1,2019-07-02T15:35:00,27.1690,-82.9260,74.95,11111222 
COMPS,ioos:station:USF.COMPS:C10:1,2019-07-02T16:35:00,27.1690,-82.9260,74.96,11111222 
COMPS,ioos:station:USF.COMPS:C10:1,2019-07-02T17:35:00,27.1690,-82.9260,72.91,11111222 
COMPS,ioos:station:USF.COMPS:C10:1,2019-07-02T18:35:00,27.1690,-82.9260,75.82,11111222 
COMPS,ioos:station:USF.COMPS:C10:1,2019-07-02T19:35:00,27.1690,-82.9260,77.1,11111222 
COMPS,ioos:station:USF.COMPS:C10:1,2019-07-02T20:35:00,27.1690,-82.9260,76.2,11111222 
COMPS,ioos:station:USF.COMPS:C10:1,2019-07-02T21:35:00,27.1690,-82.9260,72.55,11111222 
COMPS,ioos:station:USF.COMPS:C10:1,2019-07-02T22:35:00,27.1690,-82.9260,75.18,11111222 
COMPS,ioos:station:USF.COMPS:C10:1,2019-07-02T23:35:00,27.1690,-82.9260,77.11,11111222 
COMPS,ioos:station:USF.COMPS:C10:1,2019-07-03T00:35:00,27.1690,-82.9260,76.84,11111222 
COMPS,ioos:station:USF.COMPS:C10:1,2019-07-03T01:35:00,27.1690,-82.9260,79.88,11111222 
COMPS,ioos:station:USF.COMPS:C10:1,2019-07-03T02:35:00,27.1690,-82.9260,78.91,11111222 
COMPS,ioos:station:USF.COMPS:C10:1,2019-07-03T03:35:00,27.1690,-82.9260,80.24,11111222 
COMPS,ioos:station:USF.COMPS:C10:1,2019-07-03T04:35:00,27.1690,-82.9260,77.38,11111222 
COMPS,ioos:station:USF.COMPS:C10:1,2019-07-03T05:35:00,27.1690,-82.9260,78.72,11111222 
COMPS,ioos:station:USF.COMPS:C10:1,2019-07-03T06:35:00,27.1690,-82.9260,78.21,11111222 
COMPS,ioos:station:USF.COMPS:C10:1,2019-07-03T07:35:00,27.1690,-82.9260,79.65,11111222 
COMPS,ioos:station:USF.COMPS:C10:1,2019-07-03T08:35:00,27.1690,-82.9260,77.3,11111222 
COMPS,ioos:station:USF.COMPS:C10:1,2019-07-03T09:35:00,27.1690,-82.9260,79.0,11111222 
COMPS,ioos:station:USF.COMPS:C10:1,2019-07-03T10:35:00,27.1690,-82.9260,76.51,11111222 
COMPS,ioos:station:USF.COMPS:C10:1,2019-07-03T11:35:00,27.1690,-82.9260,76.41,11111222 
COMPS,ioos:station:USF.COMPS:C10:1,2019-07-03T12:35:00,27.1690,-82.9260,74.83,11111222 
COMPS,ioos:station:USF.COMPS:C10:1,2019-07-03T13:35:00,27.1690,-82.9260,76.21,11111222 
COMPS,ioos:station:USF.COMPS:C10:1,2019-07-03T14:35:00,27.1690,-82.9260,77.39,11111222 
COMPS,ioos:station:USF.COMPS:C10:1,2019-07-03T15:35:00,27.1690,-82.9260,75.81,11111222 
COMPS,ioos:station:USF.COMPS:C10:1,2019-07-03T16:35:00,27.1690,-82.9260,74.16,11111222 
COMPS,ioos:station:USF.COMPS:C10:1,2019-07-03T17:35:00,27.1690,-82.9260,75.92,11111222 
COMPS,ioos:station:USF.COMPS:C10:1,2019-07-03T18:35:00,27.1690,-82.9260,76.99,11111222 
COMPS,ioos:station:USF.COMPS:C10:1,2019-07-03T19:35:00,27.1690,-82.9260,77.86,11111222 
COMPS,ioos:station:USF.COMPS:C10:1,2019-07-03T20:35:00,27.1690,-82.9260,79.45,11111222 
COMPS,ioos:station:USF.COMPS:C10:1,2019-07-03T21:35:00,27.1690,-82.9260,79.22,11111222 
COMPS,ioos:station:USF.COMPS:C10:1,2019-07-03T22:35:00,27.1690,-82.9260,78.53,11111222 
COMPS,ioos:station:USF.COMPS:C10:1,2019-07-03T23:35:00,27.1690,-82.9260,79.69,11111222 
COMPS,ioos:station:USF.COMPS:C10:1,2019-07-04T00:35:00,27.1690,-82.9260,80.87,11111222 
COMPS,ioos:station:USF.COMPS:C10:1,2019-07-04T01:35:00,27.1690,-82.9260,79.86,11111222 
COMPS,ioos:station:USF.COMPS:C10:1,2019-07-04T02:35:00,27.1690,-82.9260,80.16,11111222 
COMPS,ioos:station:USF.COMPS:C10:1,2019-07-04T03:35:00,27.1690,-82.9260,76.81,11111222 
COMPS,ioos:station:USF.COMPS:C10:1,2019-07-04T04:35:00,27.1690,-82.9260,78.66,11111222 
COMPS,ioos:station:USF.COMPS:C10:1,2019-07-04T05:35:00,27.1690,-82.9260,79.3,11111222 
COMPS,ioos:station:USF.COMPS:C10:1,2019-07-04T06:35:00,27.1690,-82.9260,81.38,11111222 
COMPS,ioos:station:USF.COMPS:C10:1,2019-07-04T07:35:00,27.1690,-82.9260,80.77,11111222 
COMPS,ioos:station:USF.COMPS:C10:1,2019-07-04T08:35:00,27.1690,-82.9260,82.45,11111222 
COMPS,ioos:station:USF.COMPS:C10:1,2019-07-04T09:35:00,27.1690,-82.9260,81.11,11111222 
COMPS,ioos:station:USF.COMPS:C10:1,2019-07-04T10:35:00,27.1690,-82.9260,81.4,11111222 
COMPS,ioos:station:USF.COMPS:C10:1,2019-07-04T14:35:00,27.1690,-82.9260,83.91,11111222 
COMPS,ioos:station:USF.COMPS:C10:1,2019-07-04T15:35:00,27.1690,-82.9260,82.39,11111222 
COMPS,ioos:station:USF.COMPS:C10:1,2019-07-04T16:35:00,27.1690,-82.9260,81.67,11111222 
COMPS,ioos:station:USF.COMPS:C10:1,2019-07-04T17:35:00,27.1690,-82.9260,79.7,11111222 
COMPS,ioos:station:USF.COMPS:C10:1,2019-07-04T18:35:00,27.1690,-82.9260,76.61,11111222 
COMPS,ioos:station:USF.COMPS:C10:1,2019-07-04T19:35:00,27.1690,-82.9260,78.71,11111222 
COMPS,ioos:station:USF.COMPS:C10:1,2019-07-04T20:35:00,27.1690,-82.9260,76.8,11111222 
COMPS,ioos:station:USF.COMPS:C10:1,2019-07-04T21:35:00,27.1690,-82.9260,76.21,11111222 
COMPS,ioos:station:USF.COMPS:C10:1,2019-07-04T22:35:00,27.1690,-82.9260,77.2,11111222 
COMPS,ioos:station:USF.COMPS:C10:1,2019-07-04T23:35:00,27.1690,-82.9260,79.79,11111222 
COMPS,ioos:station:USF.COMPS:C10:1,2019-07-05T00:35:00,27.1690,-82.9260,80.19,11111222 
COMPS,ioos:station:USF.COMPS:C10:1,2019-07-05T01:35:00,27.1690,-82.9260,81.05,11111222 
COMPS,ioos:station:USF.COMPS:C10:1,2019-07-05T02:35:00,27.1690,-82.9260,83.9,11111222 
COMPS,ioos:station:USF.COMPS:C10:1,2019-07-05T03:35:00,27.1690,-82.9260,83.42,11111222 
COMPS,ioos:station:USF.COMPS:C10:1,2019-07-05T04:35:00,27.1690,-82.9260,83.15,11111222 
COMPS,ioos:station:USF.COMPS:C10:1,2019-07-05T05:35:00,27.1690,-82.9260,83.55,11111222 
COMPS,ioos:station:USF.COMPS:C10:1,2019-07-05T06:35:00,27.1690,-82.9260,80.64,11111222 
COMPS,ioos:station:USF.COMPS:C10:1,2019-07-05T07:35:00,27.1690,-82.9260,80.63,11111222 
COMPS,ioos:station:USF.COMPS:C10:1,2019-07-05T08:35:00,27.1690,-82.9260,82.15,11111222 
COMPS,ioos:station:USF.COMPS:C10:1,2019-07-05T09:35:00,27.1690,-82.9260,82.68,11111222 
COMPS,ioos:station:USF.COMPS:C10:1,2019-07-05T10:35:00,27.1690,-82.9260,82.95,11111222 
COMPS,ioos:station:USF.COMPS:C10:1,2019-07-05T11:35:00,27.1690,-82.9260,79.9,11111222 
COMPS,ioos:station:USF.COMPS:C10:1,2019-07-05T12:35:00,27.1690,-82.9260,78.33,11111222 
COMPS,ioos:station:USF.COMPS:C10:1,2019-07-05T13:35:00,27.1690,-82.9260,78.39,11111222 
COMPS,ioos:station:USF.COMPS:C10:1,2019-07-05T14:35:00,27.1690,-82.9260,84.51,11111222 
COMPS,ioos:station:USF.COMPS:C10:1,2019-07-05T15:35:00,27.1690,-82.9260,83.4,11111222 
COMPS,ioos:station:USF.COMPS:C10:1,2019-07-05T16:35:00,27.1690,-82.9260,80.61,11111222 
COMPS,ioos:station:USF.COMPS:C10:1,2019-07-05T17:35:00,27.1690,-82.9260,79.97,11111222 
COMPS,ioos:station:USF.COMPS:C10:1,2019-07-05T18:35:00,27.1690,-82.9260,77.79,11111222 
COMPS,ioos:station:USF.COMPS:C10:1,2019-07-05T19:35:00,27.1690,-82.9260,76.54,11111222 
COMPS,ioos:station:USF.COMPS:C10:1,2019-07-05T20:35:00,27.1690,-82.9260,77.12,11111222 
COMPS,ioos:station:USF.COMPS:C10:1,2019-07-05T21:35:00,27.1690,-82.9260,78.48,11111222 
COMPS,ioos:station:USF.COMPS:C10:1,2019-07-05T22:35:00,27.1690,-82.9260,75.81,11111222 
COMPS,ioos:station:USF.COMPS:C10:1,2019-07-05T23:35:00,27.1690,-82.9260,75.78,11111222 
COMPS,ioos:station:USF.COMPS:C10:1,2019-07-06T00:35:00,27.1690,-82.9260,76.1,11111222 
COMPS,ioos:station:USF.COMPS:C10:1,2019-07-06T01:35:00,27.1690,-82.9260,76.72,11111222 
COMPS,ioos:station:USF.COMPS:C10:1,2019-07-06T02:35:00,27.1690,-82.9260,77.67,11111222 
COMPS,ioos:station:USF.COMPS:C10:1,2019-07-06T03:35:00,27.1690,-82.9260,78.72,11111222 
COMPS,ioos:station:USF.COMPS:C10:1,2019-07-06T04:35:00,27.1690,-82.9260,76.99,11111222 
COMPS,ioos:station:USF.COMPS:C10:1,2019-07-06T05:35:00,27.1690,-82.9260,77.11,11111222 
COMPS,ioos:station:USF.COMPS:C10:1,2019-07-06T06:35:00,27.1690,-82.9260,84.51,11111222 
COMPS,ioos:station:USF.COMPS:C10:1,2019-07-06T07:35:00,27.1690,-82.9260,81.85,11111222 
COMPS,ioos:station:USF.COMPS:C10:1,2019-07-06T08:35:00,27.1690,-82.9260,84.62,11111222 
COMPS,ioos:station:USF.COMPS:C10:1,2019-07-06T09:35:00,27.1690,-82.9260,81.15,11111222 
COMPS,ioos:station:USF.COMPS:C10:1,2019-07-06T10:35:00,27.1690,-82.9260,80.74,11111222 
COMPS,ioos:station:USF.COMPS:C10:1,2019-07-06T11:35:00,27.1690,-82.9260,85.38,11111222 
COMPS,ioos:station:USF.COMPS:C10:1,2019-07-06T12:35:00,27.1690,-82.9260,83.09,11111222 
COMPS,ioos:station:USF.COMPS:C10:1,2019-07-06T13:35:00,27.1690,-82.9260,80.5,11111222 
COMPS,ioos:station:USF.COMPS:C10:1,2019-07-06T14:35:00,27.1690,-82.9260,81.69,11111222 
COMPS,ioos:station:USF.COMPS:C10:1,2019-07-06T15:35:00,27.1690,-82.9260,82.84,11111222 
COMPS,ioos:station:USF.COMPS:C10:1,2019-07-06T16:35:00,27.1690,-82.9260,79.07,11111222 
COMPS,ioos:station:USF.COMPS:C10:1,2019-07-06T17:35:00,27.1690,-82.9260,79.3,11111222 
COMPS,ioos:station:USF.COMPS:C10:1,2019-07-06T18:35:00,27.1690,-82.9260,77.97,11111222 
COMPS,ioos:station:USF.COMPS:C10:1,2019-07-06T19:35:00,27.1690,-82.9260,73.49,11111222 
COMPS,ioos:station:USF.COMPS:C10:1,2019-07-06T20:35:00,27.1690,-82.9260,73.11,11111222 
COMPS,ioos:station:USF.COMPS:C10:1,2019-07-06T21:35:00,27.1690,-82.9260,71.97,11111222 
COMPS,ioos:station:USF.COMPS:C10:1,2019-07-06T22:35:00,27.1690,-82.9260,74.13,11111222 
COMPS,ioos:station:USF.COMPS:C10:1,2019-07-06T23:35:00,27.1690,-82.9260,74.95,11111222 
COMPS,ioos:station:USF.COMPS:C10:1,2019-07-07T00:35:00,27.1690,-82.9260,75.19,11111222 
COMPS,ioos:station:USF.COMPS:C10:1,2019-07-07T01:35:00,27.1690,-82.9260,76.58,11111222 
COMPS,ioos:station:USF.COMPS:C10:1,2019-07-07T02:35:00,27.1690,-82.9260,85.56,11111222 
COMPS,ioos:station:USF.COMPS:C10:1,2019-07-07T03:35:00,27.1690,-82.9260,88.91,11111222 
COMPS,ioos:station:USF.COMPS:C10:1,2019-07-07T04:35:00,27.1690,-82.9260,83.29,11111222 
COMPS,ioos:station:USF.COMPS:C10:1,2019-07-07T05:35:00,27.1690,-82.9260,74.09,11111222 
COMPS,ioos:station:USF.COMPS:C10:1,2019-07-07T06:35:00,27.1690,-82.9260,73.29,11111222 
COMPS,ioos:station:USF.COMPS:C10:1,2019-07-07T07:35:00,27.1690,-82.9260,77.84,11111222 
COMPS,ioos:station:USF.COMPS:C10:1,2019-07-07T08:35:00,27.1690,-82.9260,78.59,11111222 
COMPS,ioos:station:USF.COMPS:C10:1,2019-07-07T09:35:00,27.1690,-82.9260,81.47,11111222 
COMPS,ioos:station:USF.COMPS:C10:1,2019-07-07T10:35:00,27.1690,-82.9260,82.4,11111222 
COMPS,ioos:station:USF.COMPS:C10:1,2019-07-07T11:35:00,27.1690,-82.9260,81.46,11111222 
COMPS,ioos:station:USF.COMPS:C10:1,2019-07-07T12:35:00,27.1690,-82.9260,79.69,11111222 
COMPS,ioos:station:USF.COMPS:C10:1,2019-07-07T13:35:00,27.1690,-82.9260,76.8,11111222 
COMPS,ioos:station:USF.COMPS:C10:1,2019-07-07T14:35:00,27.1690,-82.9260,76.45,11111222 
COMPS,ioos:station:USF.COMPS:C10:1,2019-07-07T15:35:00,27.1690,-82.9260,81.78,11111222 
COMPS,ioos:station:USF.COMPS:C10:1,2019-07-07T16:35:00,27.1690,-82.9260,84.18,11111222 
COMPS,ioos:station:USF.COMPS:C10:1,2019-07-07T17:35:00,27.1690,-82.9260,85.85,11111222 
COMPS,ioos:station:USF.COMPS:C10:1,2019-07-07T18:35:00,27.1690,-82.9260,82.93,11111222 
COMPS,ioos:station:USF.COMPS:C10:1,2019-07-07T19:35:00,27.1690,-82.9260,81.8,11111222 
COMPS,ioos:station:USF.COMPS:C10:1,2019-07-07T20:35:00,27.1690,-82.9260,85.16,11111222 
COMPS,ioos:station:USF.COMPS:C10:1,2019-07-07T21:35:00,27.1690,-82.9260,79.67,11111222 
COMPS,ioos:station:USF.COMPS:C10:1,2019-07-07T22:35:00,27.1690,-82.9260,81.18,11111222 
COMPS,ioos:station:USF.COMPS:C10:1,2019-07-07T23:35:00,27.1690,-82.9260,81.13,11111222 
COMPS,ioos:station:USF.COMPS:C10:1,2019-07-08T00:35:00,27.1690,-82.9260,79.83,11111222 
COMPS,ioos:station:USF.COMPS:C10:1,2019-07-08T01:35:00,27.1690,-82.9260,79.72,11111222 
COMPS,ioos:station:USF.COMPS:C10:1,2019-07-08T02:35:00,27.1690,-82.9260,79.78,11111222 
COMPS,ioos:station:USF.COMPS:C10:1,2019-07-08T03:35:00,27.1690,-82.9260,77.05,11111222 
COMPS,ioos:station:USF.COMPS:C10:1,2019-07-08T04:35:00,27.1690,-82.9260,78.63,11111222 
COMPS,ioos:station:USF.COMPS:C10:1,2019-07-08T05:35:00,27.1690,-82.9260,78.65,11111222 
COMPS,ioos:station:USF.COMPS:C10:1,2019-07-08T06:35:00,27.1690,-82.9260,80.18,11111222 
COMPS,ioos:station:USF.COMPS:C10:1,2019-07-08T07:35:00,27.1690,-82.9260,80.78,11111222 
COMPS,ioos:station:USF.COMPS:C10:1,2019-07-08T08:35:00,27.1690,-82.9260,82.5,11111222 
COMPS,ioos:station:USF.COMPS:C10:1,2019-07-08T09:35:00,27.1690,-82.9260,84.61,11111222 
COMPS,ioos:station:USF.COMPS:C10:1,2019-07-08T10:35:00,27.1690,-82.9260,85.69,11111222 
COMPS,ioos:station:USF.COMPS:C10:1,2019-07-08T11:35:00,27.1690,-82.9260,80.13,11111222 
COMPS,ioos:station:USF.COMPS:C10:1,2019-07-08T12:35:00,27.1690,-82.9260,81.69,11111222 
COMPS,ioos:station:USF.COMPS:C10:1,2019-07-08T13:35:00,27.1690,-82.9260,75.54,11111222 
COMPS,ioos:station:USF.COMPS:C10:1,2019-07-08T14:35:00,27.1690,-82.9260,77.53,11111222 
COMPS,ioos:station:USF.COMPS:C10:1,2019-07-08T15:35:00,27.1690,-82.9260,92.12,11111222 
COMPS,ioos:station:USF.COMPS:C10:1,2019-07-08T16:35:00,27.1690,-82.9260,88.04,11111222 
COMPS,ioos:station:USF.COMPS:C10:1,2019-07-08T17:35:00,27.1690,-82.9260,89.78,11111222 
COMPS,ioos:station:USF.COMPS:C10:1,2019-07-08T18:35:00,27.1690,-82.9260,86.44,11111222 
COMPS,ioos:station:USF.COMPS:C10:1,2019-07-08T19:35:00,27.1690,-82.9260,82.06,11111222 
COMPS,ioos:station:USF.COMPS:C10:1,2019-07-08T20:35:00,27.1690,-82.9260,81.88,11111222 
COMPS,ioos:station:USF.COMPS:C10:1,2019-07-08T21:35:00,27.1690,-82.9260,79.45,11111222 
COMPS,ioos:station:USF.COMPS:C10:1,2019-07-08T22:35:00,27.1690,-82.9260,77.9,11111222 
COMPS,ioos:station:USF.COMPS:C10:1,2019-07-08T23:35:00,27.1690,-82.9260,82.01,11111222 
COMPS,ioos:station:USF.COMPS:C10:1,2019-07-09T00:35:00,27.1690,-82.9260,81.09,11111222 
COMPS,ioos:station:USF.COMPS:C10:1,2019-07-09T01:35:00,27.1690,-82.9260,81.36,11111222 
COMPS,ioos:station:USF.COMPS:C10:1,2019-07-09T02:35:00,27.1690,-82.9260,81.55,11111222 
COMPS,ioos:station:USF.COMPS:C10:1,2019-07-09T03:35:00,27.1690,-82.9260,83.09,11111222 
COMPS,ioos:station:USF.COMPS:C10:1,2019-07-09T04:35:00,27.1690,-82.9260,83.01,11111222 
COMPS,ioos:station:USF.COMPS:C10:1,2019-07-09T05:35:00,27.1690,-82.9260,82.95,11111222 
COMPS,ioos:station:USF.COMPS:C10:1,2019-07-09T06:35:00,27.1690,-82.9260,82.19,11111222 
COMPS,ioos:station:USF.COMPS:C10:1,2019-07-09T07:35:00,27.1690,-82.9260,84.66,11111222 
COMPS,ioos:station:USF.COMPS:C10:1,2019-07-09T08:35:00,27.1690,-82.9260,85.12,11111222 
COMPS,ioos:station:USF.COMPS:C10:1,2019-07-09T09:35:00,27.1690,-82.9260,83.64,11111222 
COMPS,ioos:station:USF.COMPS:C10:1,2019-07-09T10:35:00,27.1690,-82.9260,90.46,11111222 
COMPS,ioos:station:USF.COMPS:C10:1,2019-07-09T11:35:00,27.1690,-82.9260,82.24,11111222 
COMPS,ioos:station:USF.COMPS:C10:1,2019-07-09T12:35:00,27.1690,-82.9260,81.38,11111222 
COMPS,ioos:station:USF.COMPS:C10:1,2019-07-09T13:35:00,27.1690,-82.9260,82.81,11111222 
COMPS,ioos:station:USF.COMPS:C10:1,2019-07-09T14:35:00,27.1690,-82.9260,83.83,11111222 
COMPS,ioos:station:USF.COMPS:C10:1,2019-07-09T15:35:00,27.1690,-82.9260,83.69,11111222 
COMPS,ioos:station:USF.COMPS:C10:1,2019-07-09T16:35:00,27.1690,-82.9260,84.96,11111222 
COMPS,ioos:station:USF.COMPS:C10:1,2019-07-09T17:35:00,27.1690,-82.9260,89.82,11111222 
COMPS,ioos:station:USF.COMPS:C10:1,2019-07-09T18:35:00,27.1690,-82.9260,91.97,11111222 
COMPS,ioos:station:USF.COMPS:C10:1,2019-07-09T19:35:00,27.1690,-82.9260,91.91,11111222 
COMPS,ioos:station:USF.COMPS:C10:1,2019-07-09T20:35:00,27.1690,-82.9260,91.45,11111222 
COMPS,ioos:station:USF.COMPS:C10:1,2019-07-09T21:35:00,27.1690,-82.9260,87.95,11111222 
COMPS,ioos:station:USF.COMPS:C10:1,2019-07-09T22:35:00,27.1690,-82.9260,89.08,11111222 
COMPS,ioos:station:USF.COMPS:C10:1,2019-07-09T23:35:00,27.1690,-82.9260,86.51,11111222 
COMPS,ioos:station:USF.COMPS:C10:1,2019-07-10T00:35:00,27.1690,-82.9260,84.6,11111222 
COMPS,ioos:station:USF.COMPS:C10:1,2019-07-10T01:35:00,27.1690,-82.9260,83.87,11111222 
COMPS,ioos:station:USF.COMPS:C10:1,2019-07-10T02:35:00,27.1690,-82.9260,82.91,11111222 
COMPS,ioos:station:USF.COMPS:C10:1,2019-07-10T03:35:00,27.1690,-82.9260,81.75,11111222 
COMPS,ioos:station:USF.COMPS:C10:1,2019-07-10T04:35:00,27.1690,-82.9260,81.45,11111222 
COMPS,ioos:station:USF.COMPS:C10:1,2019-07-10T05:35:00,27.1690,-82.9260,83.16,11111222 
COMPS,ioos:station:USF.COMPS:C10:1,2019-07-10T06:35:00,27.1690,-82.9260,83.76,11111222 
COMPS,ioos:station:USF.COMPS:C10:1,2019-07-10T07:35:00,27.1690,-82.9260,82.56,11111222 
COMPS,ioos:station:USF.COMPS:C10:1,2019-07-10T08:35:00,27.1690,-82.9260,83.63,11111222 
COMPS,ioos:station:USF.COMPS:C10:1,2019-07-10T09:35:00,27.1690,-82.9260,77.63,11111222 
COMPS,ioos:station:USF.COMPS:C10:1,2019-07-10T10:35:00,27.1690,-82.9260,75.3,11111222 
COMPS,ioos:station:USF.COMPS:C10:1,2019-07-10T11:35:00,27.1690,-82.9260,81.01,11111222 
COMPS,ioos:station:USF.COMPS:C10:1,2019-07-10T12:35:00,27.1690,-82.9260,79.11,11111222 
COMPS,ioos:station:USF.COMPS:C10:1,2019-07-10T13:35:00,27.1690,-82.9260,81.15,11111222 
COMPS,ioos:station:USF.COMPS:C10:1,2019-07-10T14:35:00,27.1690,-82.9260,76.17,11111222 
COMPS,ioos:station:USF.COMPS:C10:1,2019-07-10T15:35:00,27.1690,-82.9260,84.54,11111222 
COMPS,ioos:station:USF.COMPS:C10:1,2019-07-10T16:35:00,27.1690,-82.9260,75.4,11111222 
COMPS,ioos:station:USF.COMPS:C10:1,2019-07-10T17:35:00,27.1690,-82.9260,78.52,11111222 
COMPS,ioos:station:USF.COMPS:C10:1,2019-07-10T18:35:00,27.1690,-82.9260,76.88,11111222 
COMPS,ioos:station:USF.COMPS:C10:1,2019-07-10T19:35:00,27.1690,-82.9260,79.85,11111222 
COMPS,ioos:station:USF.COMPS:C10:1,2019-07-10T20:35:00,27.1690,-82.9260,79.44,11111222 
COMPS,ioos:station:USF.COMPS:C10:1,2019-07-10T21:35:00,27.1690,-82.9260,81.22,11111222 
COMPS,ioos:station:USF.COMPS:C10:1,2019-07-10T22:35:00,27.1690,-82.9260,77.86,11111222 
COMPS,ioos:station:USF.COMPS:C10:1,2019-07-10T23:35:00,27.1690,-82.9260,77.03,11111222 
COMPS,ioos:station:USF.COMPS:C10:1,2019-07-11T00:35:00,27.1690,-82.9260,78.73,11111222 
COMPS,ioos:station:USF.COMPS:C10:1,2019-07-11T01:35:00,27.1690,-82.9260,80.22,11111222 
COMPS,ioos:station:USF.COMPS:C10:1,2019-07-11T02:35:00,27.1690,-82.9260,80.35,11111222 
COMPS,ioos:station:USF.COMPS:C10:1,2019-07-11T03:35:00,27.1690,-82.9260,80.17,11111222 
COMPS,ioos:station:USF.COMPS:C10:1,2019-07-11T04:35:00,27.1690,-82.9260,80.93,11111222 
COMPS,ioos:station:USF.COMPS:C10:1,2019-07-11T05:35:00,27.1690,-82.9260,80.72,11111222 
COMPS,ioos:station:USF.COMPS:C10:1,2019-07-11T06:35:00,27.1690,-82.9260,79.43,11111222 
COMPS,ioos:station:USF.COMPS:C10:1,2019-07-11T07:35:00,27.1690,-82.9260,79.61,11111222 
COMPS,ioos:station:USF.COMPS:C10:1,2019-07-11T08:35:00,27.1690,-82.9260,80.76,11111222 
COMPS,ioos:station:USF.COMPS:C10:1,2019-07-11T09:35:00,27.1690,-82.9260,80.59,11111222 
COMPS,ioos:station:USF.COMPS:C10:1,2019-07-11T10:35:00,27.1690,-82.9260,78.76,11111222 
COMPS,ioos:station:USF.COMPS:C10:1,2019-07-11T11:35:00,27.1690,-82.9260,79.0,11111222 
COMPS,ioos:station:USF.COMPS:C10:1,2019-07-11T12:35:00,27.1690,-82.9260,79.71,11111222 
COMPS,ioos:station:USF.COMPS:C10:1,2019-07-11T13:35:00,27.1690,-82.9260,77.93,11111222 
COMPS,ioos:station:USF.COMPS:C10:1,2019-07-11T14:35:00,27.1690,-82.9260,77.44,11111222 
COMPS,ioos:station:USF.COMPS:C10:1,2019-07-11T15:35:00,27.1690,-82.9260,79.5,11111222 
COMPS,ioos:station:USF.COMPS:C10:1,2019-07-11T16:35:00,27.1690,-82.9260,81.77,11111222 
COMPS,ioos:station:USF.COMPS:C10:1,2019-07-11T17:35:00,27.1690,-82.9260,83.18,11111222 
COMPS,ioos:station:USF.COMPS:C10:1,2019-07-11T18:35:00,27.1690,-82.9260,75.68,11111222 
COMPS,ioos:station:USF.COMPS:C10:1,2019-07-11T19:35:00,27.1690,-82.9260,75.78,11111222 
COMPS,ioos:station:USF.COMPS:C10:1,2019-07-11T20:35:00,27.1690,-82.9260,74.96,11111222 
COMPS,ioos:station:USF.COMPS:C10:1,2019-07-11T21:35:00,27.1690,-82.9260,88.97,11111222 
COMPS,ioos:station:USF.COMPS:C10:1,2019-07-11T22:35:00,27.1690,-82.9260,79.84,11111222 
COMPS,ioos:station:USF.COMPS:C10:1,2019-07-11T23:35:00,27.1690,-82.9260,77.37,11111222 
COMPS,ioos:station:USF.COMPS:C10:1,2019-07-12T00:35:00,27.1690,-82.9260,80.48,11111222 
COMPS,ioos:station:USF.COMPS:C10:1,2019-07-12T01:35:00,27.1690,-82.9260,79.15,11111222 
COMPS,ioos:station:USF.COMPS:C10:1,2019-07-12T02:35:00,27.1690,-82.9260,78.66,11111222 
COMPS,ioos:station:USF.COMPS:C10:1,2019-07-12T03:35:00,27.1690,-82.9260,82.4,11111222 
COMPS,ioos:station:USF.COMPS:C10:1,2019-07-12T04:35:00,27.1690,-82.9260,82.76,11111222 
COMPS,ioos:station:USF.COMPS:C10:1,2019-07-12T05:35:00,27.1690,-82.9260,78.05,11111222 
COMPS,ioos:station:USF.COMPS:C10:1,2019-07-12T06:35:00,27.1690,-82.9260,81.74,11111222 
COMPS,ioos:station:USF.COMPS:C10:1,2019-07-12T07:35:00,27.1690,-82.9260,80.27,11111222 
COMPS,ioos:station:USF.COMPS:C10:1,2019-07-12T08:35:00,27.1690,-82.9260,82.0,11111222 
COMPS,ioos:station:USF.COMPS:C10:1,2019-07-12T09:35:00,27.1690,-82.9260,77.51,11111222 
COMPS,ioos:station:USF.COMPS:C10:1,2019-07-12T10:35:00,27.1690,-82.9260,79.5,11111222 
COMPS,ioos:station:USF.COMPS:C10:1,2019-07-12T11:35:00,27.1690,-82.9260,79.16,11111222 